Satellite-Ground Cal/Val Site Overpasses Predictions

Prediction of Satellite NPP Overpassing Cal/Val Site: Antarctic Dome C

Ground Cal/Val Site Location: Latitude: -75.10, Longitude: 123.35; Satellite-Ground Site NADIR distance within 100 km.

Table of predicted overpasses for the next 14.0 days since TLE Epoch: 11/9/2019
Interval Starting Time Ending Time Minimum Distance Time Minimum Distance (km)
1 11/09/2019 14:42:32 11/09/2019 14:42:57 11/09/2019 14:42:45 52.01
2 11/10/2019 07:44:14 11/10/2019 07:44:33 11/10/2019 07:44:24 73.34
3 11/11/2019 07:25:20 11/11/2019 07:25:47 11/11/2019 07:25:33 34.64
4 11/13/2019 15:07:45 11/13/2019 15:07:54 11/13/2019 15:07:49 94.94
5 11/14/2019 14:48:45 11/14/2019 14:49:14 11/14/2019 14:48:59 16.54
6 11/16/2019 07:31:33 11/16/2019 07:32:03 11/16/2019 07:31:48 2.25
7 11/19/2019 14:54:59 11/19/2019 14:55:27 11/19/2019 14:55:13 20.07
8 11/20/2019 14:36:17 11/20/2019 14:36:31 11/20/2019 14:36:24 86.93
9 11/21/2019 07:37:49 11/21/2019 07:38:16 11/21/2019 07:38:02 38.23


NCC Satellite Cal/Val Overpasses Prediction Service
